THOR ABLESTAR DEB, 127

Orbit data source: Space-Track

THOR ABLESTAR DEB, 127 is space debris in LEO originally from a launch on Thu, 29 Jun 1961 UTC launched from the Air Force Eastern Test Range (AFETR). Debris objects in space refer to the collection of defunct objects orbiting the Earth. Examples of debris include non-operational satellites, rocket bodies, and fragments generated from explosions, collisions, or faulty payload assembly.

Loading next visibility...
Identifier
127, 1961-015M
Orbit
LEO
Last TLE update
1 day ago
Origin
Manufacturer
Unknown
Mission
Spacecraft
Bus & Motor
Unknown
Mass
Unknown
Launch date (UTC)
1961-06-29 (64 years ago)
Launch vehicle
Unknown
Launch site
Air Force Eastern Test Range (AFETR)
Object type
Payload
Rocket body
Debris
Shape & HBR
Unknown
Radar Cross Section
0.360 m², Medium (>0.1 m² and < 1m²)

Expand to show TLE details & history

TLE from 1 day ago
0 THOR ABLESTAR DEB
1 00127U 61015M   25128.67032616  .00001987  00000-0  55656-3 0  9997
2 00127  66.8293 308.5496 0070626 315.5908  43.9549 14.46725366308305
Epoch: 2025-05-08T16:05Z
Definitive object data (Epoch: 2025-05-08T16:05:16.18Z)
Latitude
0.00003°
Longitude
-159.50529°
Altitude
702.494 km
Speed
7.524 km/s
True Right ascension
20h 34m 11s
True Declination
0° 00' 00"
Sunlit
Object was in daylight at TLE epoch
Visualization TLE readout
Latitude
-14.8924°
Longitude
24.30747°
Altitude
765.516 km
Speed
7.459 km/s
Apparent Right ascension
10h 17m 03s
Apparent Declination
-29° 08' 44"
Sunlit
Object is in daylight
Visualization observer readout
Local Sidereal Time
00:23:56
Azimuth
77.339° E
Elevation
-61.923°
Doppler factor
1
Orbital elements
Apogee altitude
784.946 km
Perigee altitude
684.476 km
Semi-major axis
7,112.848 km
Eccentricity
0.0070626
Inclination
66.8293°
RAAN
308.5496°
Arg. of periapsis
315.5908°
True anomaly
44.52022°
Mean anomaly
43.9549°
Eccentric anomaly
44.2372°
Mean motion
3.61808 °/min
BSTAR
0.00055656
Orbital period
99.5 mins
Loading maneuver chart data...
Loading SW <> Apogee altitude chart data...

THOR ABLESTAR DEB Visibility forecast

Observer location: undefined°, undefined°

Span
Click to sort rows by Start time (UTC) header in descending order
Start Az.
Max El. time (UTC)
Max El. Az.
Max El.
End time (UTC)
End Az.
4 mins2025-05-09 20:49:29.821Z18.752° NNE2025-05-09 20:51:29.821Z42.071° NE12.992°2025-05-09 20:53:29.821Z64.947° ENE
9 mins2025-05-09 22:30:29.821Z336.423° NNW2025-05-09 22:34:29.821Z54.073° ENE43.884°2025-05-09 22:39:29.821Z145.109° SSE
4 mins2025-05-10 00:14:29.821Z276.027° WNW2025-05-10 00:16:29.821Z251.776° W13.787°2025-05-10 00:18:29.821Z228.84° WSW
8 mins2025-05-10 13:01:29.821Z189.328° SSW2025-05-10 13:04:29.821Z132.872° SE40.845°2025-05-10 13:09:29.821Z36.511° NE
5 mins2025-05-10 14:45:29.821Z284.782° WNW2025-05-10 14:47:29.821Z314.299° NW18.821°2025-05-10 14:50:29.821Z354.248° N
|